星链-31786 (STARLINK-31786 )

导读

STARLINK-31786是美国太空探索技术公司(SpaceX)星链互联网卫星星座的一员,于2024年5月14日发射入轨。星链项目旨在构建全球卫星互联网星座,该卫星加入后,进一步扩充了低轨卫星星座规模,为全球偏远地区、海洋空域等场景提供宽带互联网接入服务,推动全球互联覆盖范围延伸。

Basic Information
目录编号:
59771
目录名称:
STARLINK-31786
国际标识:
2024-091U
轨道中心:
EARTH
卫星名称:
星链-31786
卫星全名:
星链-31786 (STARLINK-31786 )
卫星状态:
在轨 (已飞行765 天)
发射日期:
2024-05-14 UTC
国别 :
美国 (US)
星等 :
--
Orbit Information
数据来源 国际轨道数据
星历时间: 2026-06-17T23:12:01+0800
12小时前
查看轨道信息
半长轴: 6853.371km
偏心率: 0.0000827
轨道倾角: 53.161°
近地点辐角 110.455°
升交点赤经 282.841°
平近点角 249.654°
近地点: 474.667km
远地点: 475.801km
周期: 94.106分钟
每日圈数: 15.301938
Detailed Information
固有亮度:
5
最大亮度:
1.5
卫星平台:
Starlink v2.0 mini
覆盖范围:
全球
运营商:
太空探索技术公司
运营商所在国:
美国
制造商(研发单位):
太空探索技术公司
制造商所在国:
美国
使用方式:
暂无
Satellite Introduction
星链(Starlink)计划是由太空探索技术公司(SpaceX)提出的一个巨型低轨卫星互联网星座项目,计划在2019年至2024年间在太空搭建由约1.2万颗卫星组成的“星链”网络,其中1584颗将部署在地球上空550千米处的近地轨道,并从2020年开始工作。该卫星仍在工作。
2D Orbit Map
3D Orbit Map
Orbit Altitude Analysis Chart
Orbit Inclination Analysis Chart
Orbit Comprehensive Analysis Chart
View Comprehensive Chart